Weather History for Pittsfield, IL

Change the Weather History Date:

Saturday, May 10, 2014

  Actual Average (KUIN) Record (KUIN)
Temperature  
Mean Temperature 66 °F 61 °F  
Max Temperature 80 °F 71 °F 92 °F (2011)
Min Temperature 52 °F 51 °F 28 °F (1966)
Degree Days  
Heating Degree Days 0 5  
Month to date heating degree days 64  
Since 1 July heating degree days 5494  
Cooling Degree Days 1 1  
Month to date cooling degree days 10  
Year to date cooling degree days 28  
Growing Degree Days 16 (Base 50)    
Moisture  
Dew Point 50 °F    
Average Humidity 60    
Maximum Humidity 91    
Minimum Humidity 28    
Precipitation  
Precipitation 0.81 in 0.14 in 2.73 in (1962)
Month to date precipitation 1.35  
Year to date precipitation 10.90  
Sea Level Pressure  
Sea Level Pressure 29.92 in    
Wind  
Wind Speed 4 mph (ESE)    
Max Wind Speed 22 mph    
Max Gust Speed 25 mph    
Visibility 9 miles    
Events Rain , Thunderstorm    
T = Trace of Precipitation, MM = Missing Value Source: NWS Daily Summary

Daily Weather History Graph

Daily Weather History Graph

Search for Another Location

Airport:

Trip Planner

Search our weather history database for the weather conditions in past years. The results will help you decide how hot, cold, wet, or windy it might be!

Date:

Astronomy

May. 10, 2014 Rise Set
Actual Time 5:53 AM CDT 8:06 PM CDT
Civil Twilight 5:23 AM CDT 8:36 PM CDT
Nautical Twilight 4:46 AM CDT 9:12 PM CDT
Astronomical Twilight 4:06 AM CDT 9:53 PM CDT
Moon 4:02 PM CDT (5/10) 3:26 AM CDT (5/10)
Length of Visible Light 15h 12m
Length of Day
14h 12m
Waxing Gibbous, 82% of the Moon is Illuminated
May 10
Waxing Gibbous
May 14
Full
May 21
Last Quarter
May 28
New
Jun 5
First Quarter

Hourly Weather History & Observations

Time (CDT) Temp. Dew Point Humidity Pressure Visibility Wind Dir Wind Speed Gust Speed Precip Events Conditions
12:15 AM 55.2 °F 50.2 °F 83% 29.92 in 10.0 mi Calm Calm - N/A   Clear
12:35 AM 55.8 °F 50.4 °F 82% 29.92 in 10.0 mi Calm Calm - N/A   Clear
12:55 AM 55.4 °F 49.5 °F 80% 29.92 in 10.0 mi Calm Calm - N/A   Clear
1:15 AM 54.0 °F 50.0 °F 86% 29.92 in 10.0 mi Calm Calm - N/A   Clear
1:35 AM 53.6 °F 49.8 °F 87% 29.92 in 10.0 mi Calm Calm - N/A   Clear
1:55 AM 54.3 °F 49.8 °F 85% 29.93 in 10.0 mi Calm Calm - N/A   Clear
2:15 AM 52.9 °F 49.3 °F 88% 29.93 in 10.0 mi Calm Calm - N/A   Clear
2:35 AM 53.4 °F 49.6 °F 87% 29.93 in 10.0 mi Calm Calm - N/A   Clear
2:55 AM 53.4 °F 50.0 °F 88% 29.92 in 10.0 mi Calm Calm - N/A   Clear
3:15 AM 53.6 °F 49.6 °F 86% 29.92 in 10.0 mi Calm Calm - N/A   Clear
3:35 AM 53.4 °F 49.1 °F 85% 29.92 in 10.0 mi Calm Calm - N/A   Clear
3:55 AM 52.9 °F 49.8 °F 89% 29.92 in 10.0 mi Calm Calm - N/A   Clear
4:15 AM 54.0 °F 49.3 °F 84% 29.92 in 10.0 mi Calm Calm - N/A   Clear
4:35 AM 54.5 °F 49.1 °F 82% 29.93 in 10.0 mi Calm Calm - N/A   Clear
4:55 AM 52.7 °F 49.6 °F 89% 29.92 in 10.0 mi East 4.6 mph - N/A   Clear
5:15 AM 52.2 °F 49.5 °F 91% 29.93 in 10.0 mi Calm Calm - N/A   Clear
5:35 AM 53.2 °F 49.3 °F 86% 29.92 in 10.0 mi Calm Calm - N/A   Clear
5:55 AM 53.1 °F 49.6 °F 88% 29.93 in 10.0 mi Calm Calm - N/A   Clear
6:15 AM 54.3 °F 47.8 °F 79% 29.93 in 10.0 mi Calm Calm - N/A   Clear
6:35 AM 54.9 °F 47.8 °F 77% 29.94 in 10.0 mi Calm Calm - N/A   Clear
6:55 AM 55.6 °F 47.5 °F 74% 29.95 in 10.0 mi Calm Calm - N/A   Clear
7:15 AM 56.3 °F 48.4 °F 75% 29.95 in 10.0 mi Calm Calm - N/A   Clear
7:35 AM 57.9 °F 49.3 °F 73% 29.95 in 10.0 mi Calm Calm - N/A   Clear
7:55 AM 59.4 °F 51.3 °F 75% 29.96 in 10.0 mi SE 3.5 mph - N/A   Clear
8:15 AM 61.7 °F 50.9 °F 68% 29.96 in 10.0 mi SE 5.8 mph - N/A   Clear
8:35 AM 63.9 °F 51.4 °F 64% 29.96 in 10.0 mi SE 9.2 mph - N/A   Clear
8:55 AM 65.8 °F 50.7 °F 58% 29.96 in 10.0 mi SE 8.1 mph - N/A   Clear
9:15 AM 67.3 °F 50.9 °F 56% 29.97 in 10.0 mi SE 8.1 mph - N/A   Clear
9:35 AM 68.5 °F 50.0 °F 52% 29.97 in 10.0 mi SE 9.2 mph - N/A   Clear
9:55 AM 69.3 °F 50.5 °F 51% 29.97 in 10.0 mi SE 11.5 mph - N/A   Clear
10:15 AM 70.3 °F 51.4 °F 51% 29.97 in 10.0 mi SSE 10.4 mph - N/A   Clear
10:35 AM 71.6 °F 51.8 °F 50% 29.97 in 10.0 mi SE 11.5 mph - N/A   Clear
10:55 AM 71.1 °F 50.4 °F 48% 29.98 in 10.0 mi SE 8.1 mph - N/A   Clear
11:15 AM 72.0 °F 48.4 °F 43% 29.99 in 10.0 mi East 9.2 mph - N/A   Clear
11:35 AM 72.9 °F 48.0 °F 41% 29.98 in 10.0 mi South 8.1 mph - N/A   Clear
11:55 AM 73.6 °F 48.4 °F 41% 29.98 in 10.0 mi SSE 5.8 mph - N/A   Clear
12:15 PM 74.3 °F 47.8 °F 39% 29.97 in 10.0 mi ESE 9.2 mph - N/A   Clear
12:35 PM 75.0 °F 47.7 °F 38% 29.96 in 10.0 mi SE 8.1 mph - N/A   Clear
12:55 PM 75.4 °F 47.8 °F 38% 29.96 in 10.0 mi ESE 6.9 mph - N/A   Clear
1:15 PM 75.6 °F 44.8 °F 33% 29.94 in 10.0 mi SSE 8.1 mph - N/A   Clear
1:35 PM 77.0 °F 46.0 °F 33% 29.94 in 10.0 mi South 8.1 mph - N/A   Clear
1:55 PM 77.0 °F 44.4 °F 31% 29.93 in 10.0 mi SSE 5.8 mph - N/A   Clear
2:15 PM 77.0 °F 43.2 °F 30% 29.92 in 10.0 mi ESE 3.5 mph - N/A   Clear
2:35 PM 78.1 °F 42.1 °F 28% 29.92 in 10.0 mi ESE 8.1 mph - N/A   Clear
2:55 PM 78.6 °F 45.7 °F 31% 29.91 in 10.0 mi SE 10.4 mph - N/A   Clear
3:15 PM 78.6 °F 44.2 °F 30% 29.90 in 10.0 mi SE 10.4 mph 17.3 mph N/A   Clear
3:35 PM 79.0 °F 43.5 °F 28% 29.89 in 10.0 mi SE 10.4 mph - N/A   Clear
3:55 PM 79.3 °F 44.2 °F 29% 29.88 in 10.0 mi ESE 9.2 mph - N/A   Clear
4:15 PM 79.3 °F 44.2 °F 29% 29.88 in 10.0 mi SE 8.1 mph 17.3 mph N/A   Clear
4:35 PM 80.2 °F 45.3 °F 29% 29.87 in 10.0 mi SE 11.5 mph 17.3 mph N/A   Clear
4:55 PM 79.9 °F 45.3 °F 29% 29.86 in 10.0 mi SE 10.4 mph 17.3 mph N/A   Clear
5:15 PM 78.8 °F 45.7 °F 31% 29.85 in 10.0 mi SE 8.1 mph 17.3 mph N/A   Clear
5:35 PM 78.4 °F 46.2 °F 32% 29.84 in 10.0 mi SSE 11.5 mph - N/A   Clear
5:55 PM 77.7 °F 48.6 °F 36% 29.84 in 10.0 mi SE 11.5 mph - N/A   Clear
6:15 PM 77.0 °F 48.2 °F 36% 29.83 in 10.0 mi ESE 9.2 mph - N/A   Clear
6:35 PM 77.0 °F 48.0 °F 36% 29.83 in 10.0 mi SE 11.5 mph - N/A   Clear
6:55 PM 76.1 °F 48.9 °F 38% 29.83 in 10.0 mi SE 10.4 mph - N/A Thunderstorm Clear
7:15 PM 74.8 °F 50.0 °F 42% 29.83 in 10.0 mi SE 9.2 mph - N/A   Clear
7:35 PM 74.8 °F 48.2 °F 39% 29.86 in 10.0 mi East 3.5 mph - N/A   Clear
7:55 PM 74.3 °F 49.6 °F 42% 29.87 in 10.0 mi East 3.5 mph - N/A   Clear
8:15 PM 73.2 °F 50.5 °F 45% 29.86 in 10.0 mi East 6.9 mph - N/A   Scattered Clouds
8:35 PM 72.9 °F 52.0 °F 48% 29.89 in 1.0 mi East 8.1 mph - N/A Rain , Thunderstorm Light Thunderstorms and Rain
8:55 PM 72.1 °F 53.8 °F 52% 29.87 in 10.0 mi ENE 13.8 mph 24.2 mph N/A Rain , Thunderstorm Light Thunderstorms and Rain
9:15 PM 72.9 °F 53.6 °F 51% 29.91 in 10.0 mi NNW 10.4 mph 16.1 mph N/A Rain , Thunderstorm Light Thunderstorms and Rain
9:35 PM 65.8 °F 57.7 °F 75% 29.96 in 4.0 mi NNW 21.9 mph 25.3 mph 0.08 in Rain , Thunderstorm Heavy Thunderstorms and Rain
9:55 PM 62.6 °F 58.1 °F 85% 29.99 in 2.0 mi NNW 9.2 mph - 0.49 in Rain , Thunderstorm Heavy Thunderstorms and Rain
10:15 PM 61.7 °F 58.1 °F 88% 30.00 in 4.0 mi NNE 6.9 mph - 0.08 in Rain , Thunderstorm Rain
10:35 PM 61.3 °F 58.5 °F 90% 29.96 in 5.0 mi East 15.0 mph - 0.14 in Rain , Thunderstorm Thunderstorms and Rain
10:55 PM 61.9 °F 58.1 °F 87% 29.94 in 10.0 mi SE 18.4 mph - 0.17 in Rain , Thunderstorm Thunderstorms and Rain
11:15 PM 61.9 °F 58.3 °F 88% 29.95 in 7.0 mi ESE 12.7 mph 17.3 mph 0.04 in Rain , Thunderstorm Thunderstorms and Rain
11:35 PM 62.6 °F 58.3 °F 86% 29.93 in 5.0 mi SE 17.3 mph 23.0 mph 0.12 in Rain , Thunderstorm Rain
11:55 PM 62.6 °F 58.3 °F 86% 29.92 in 10.0 mi SE 17.3 mph - 0.15 in Rain Light Rain